Wind_Speed
93 94 98 89 83 82 79 64 67 58 54 55 66 72 71 63 60 58 63 67 65 64 65 64 63 63 61 63 66 71 76 80 84 89 95 99 104 106 107 111 108 106 97 93
103 95 100 99 92 82 76 73 68 66 54 66 77 74 81 67 63 61 64 70 67 68 65 65 63 62 61 63 69 73 78 83 87 93 98 101 104 107 108 111 111 102 94 87
112 101 108 111 82 88 88 74 73 72 58 77 75 81 81 74 68 71 66 65 66 68 66 64 61 61 63 66 70 76 81 85 90 96 101 102 105 109 109 109 113 96 90 79
120 116 112 91 98 96 91 82 79 76 65 77 79 83 82 72 73 74 68 68 66 65 63 62 62 63 65 68 73 79 83 88 94 97 102 103 107 109 111 109 110 89 85 72
128 125 116 111 103 105 102 92 86 81 75 79 81 87 77 73 79 70 68 67 64 62 62 62 63 65 69 73 78 82 87 92 96 101 104 106 108 109 110 109 106 87 79 68
120 126 126 110 111 111 110 94 95 90 83 86 90 82 71 84 76 72 68 66 63 64 64 64 66 68 73 77 81 85 91 94 98 101 104 107 108 108 109 110 101 85 74 65
127 128 129 123 114 114 113 93 102 96 93 93 91 85 82 80 75 74 71 68 67 66 66 65 68 71 75 80 83 88 93 96 100 103 105 108 106 109 107 108 93 82 69 59
125 129 126 121 121 114 115 107 110 106 101 95 92 88 85 83 79 76 73 72 71 71 70 69 70 74 78 83 86 90 94 98 101 104 106 107 107 109 110 107 88 78 68 56
120 121 120 119 119 117 114 116 114 110 103 98 94 90 86 84 82 79 77 78 76 74 74 73 74 77 82 84 88 94 96 99 102 104 107 107 108 107 109 102 85 74 65 53
108 108 107 106 115 123 119 113 117 113 111 104 99 94 88 86 83 81 80 79 79 78 75 75 77 80 82 87 93 95 98 102 103 106 107 109 106 108 107 92 77 70 61 52
95 107 111 104 105 113 120 111 109 111 110 107 103 100 92 87 84 83 81 80 80 77 76 79 81 83 86 89 93 96 100 102 106 108 108 108 103 107 104 82 71 64 60 49
87 112 116 109 112 110 113 113 105 111 111 110 106 102 97 91 87 85 84 83 82 80 79 81 85 85 87 90 94 97 100 103 106 108 105 106 103 104 100 77 66 60 56 44
83 103 107 111 112 110 108 107 104 108 113 111 107 104 100 94 91 86 87 87 86 83 82 84 85 86 90 93 94 97 100 103 108 107 104 102 104 102 84 75 63 58 55 44
80 94 99 113 113 116 110 105 99 102 103 106 107 104 99 97 94 90 89 90 88 85 83 86 88 90 91 93 95 100 104 105 107 104 105 102 104 99 70 65 60 58 52 41
74 86 90 105 111 112 110 107 99 100 105 98 97 103 99 96 97 94 89 90 91 88 86 88 90 92 93 97 100 103 104 104 104 103 102 100 96 80 66 61 54 55 52 34
66 81 91 97 103 105 106 105 103 101 99 93 91 94 95 94 92 92 94 94 93 91 92 92 94 94 96 99 102 103 104 104 100 101 100 95 94 68 63 56 53 54 49 35
62 73 85 93 97 105 104 102 98 94 94 90 87 83 86 90 88 88 90 91 90 89 89 91 92 94 97 99 100 101 98 97 97 99 92 90 85 65 63 55 52 50 45 33
54 58 68 80 85 96 95 96 96 92 89 79 81 81 83 86 87 84 83 86 86 88 87 89 91 92 92 93 94 92 94 95 96 89 88 88 69 67 60 55 51 47 40 31
49 52 58 69 75 86 82 89 91 88 73 69 72 71 73 76 76 77 78 80 81 81 82 85 85 86 86 88 88 89 93 93 90 86 84 83 65 67 61 54 49 43 39 30
47 49 52 55 62 73 72 85 96 94 81 80 73 72 74 65 63 74 80 79 77 76 75 77 80 82 83 85 85 87 89 88 81 79 84 72 65 65 57 53 45 40 37 28
40 43 44 45 54 62 68 72 86 91 86 78 72 71 68 66 68 72 76 76 71 70 70 71 77 78 81 81 83 85 87 83 76 83 78 64 69 60 53 48 41 36 33 24
37 38 41 42 48 55 62 60 67 79 80 75 82 76 70 70 71 67 70 63 60 64 65 71 76 76 78 80 81 84 84 78 82 83 74 65 65 55 49 42 37 33 28 22
32 35 36 39 47 55 57 58 63 69 74 84 87 83 80 83 79 75 70 65 68 72 73 74 76 77 78 79 82 84 80 84 82 78 67 63 57 51 43 38 33 30 25 21
27 26 28 35 44 50 51 55 62 69 77 88 90 90 88 86 88 82 76 78 79 77 77 76 75 77 78 81 83 82 83 80 78 63 60 54 47 46 38 34 30 26 22 19
23 24 27 31 37 39 38 43 50 60 70 78 87 90 87 90 90 78 74 75 74 74 76 77 78 80 79 82 83 80 81 74 64 59 51 44 41 39 33 30 26 21 18 15
25 25 23 21 25 29 34 37 41 46 53 55 63 74 81 80 72 63 66 68 71 73 74 76 74 77 78 80 78 76 73 65 58 48 42 37 36 33 29 26 23 17 14 12
26 28 27 26 24 23 23 25 31 38 44 48 48 61 76 72 66 61 61 62 62 66 69 69 69 70 71 71 71 73 66 59 50 40 35 32 30 27 26 23 18 13 10 9
Wind_Direction
269 263 264 263 256 255 259 259 260 261 264 270 268 265 264 265 270 272 274 277 279 282 286 290 292 295 296 298 299 303 307 309 313 315 318 321 324 327 330 331 331 332 328 325
261 260 260 261 262 257 257 256 256 257 255 263 259 264 269 266 267 271 274 278 282 285 288 289 292 295 295 296 298 303 305 310 313 314 318 321 324 328 330 333 332 332 327 326
259 256 253 255 263 260 256 250 253 254 253 257 263 262 263 269 274 272 269 272 278 282 285 289 291 292 294 295 299 302 306 310 312 314 317 321 325 329 330 333 331 331 326 326
255 252 255 263 254 253 254 251 248 251 250 256 261 264 266 266 268 271 274 276 278 281 285 288 290 293 293 295 298 302 307 309 312 314 317 321 326 329 330 332 331 330 326 327
253 250 251 251 252 250 249 248 248 246 246 250 255 257 263 268 265 268 272 276 278 281 284 288 290 292 293 296 299 303 306 309 312 315 318 322 327 329 331 330 331 329 327 327
247 250 250 247 245 244 245 245 246 245 245 248 252 256 260 260 265 267 269 272 276 280 284 288 291 291 292 294 298 302 305 308 311 315 317 322 327 328 331 330 331 328 327 326
243 246 249 247 239 242 245 245 239 241 242 245 250 253 255 261 262 265 270 273 276 279 282 286 289 291 291 294 298 301 304 307 311 314 317 323 326 328 330 329 331 329 324 325
240 240 242 243 245 239 243 244 240 239 242 245 247 252 254 258 262 265 269 272 273 276 281 285 287 289 291 295 299 300 304 307 311 313 318 322 325 328 329 329 330 329 323 326
238 238 238 239 245 244 241 240 241 244 244 245 247 249 255 259 261 264 267 270 273 277 280 283 286 288 291 296 298 301 305 307 311 314 318 322 324 327 327 329 330 328 322 326
235 233 235 239 238 242 241 239 240 239 240 242 243 247 250 255 259 261 265 268 271 275 279 282 285 288 292 295 298 301 304 307 310 314 318 320 324 327 326 329 329 327 322 326
234 229 230 229 233 238 243 240 237 241 240 241 243 245 247 252 257 261 265 269 273 276 280 283 286 289 292 294 297 300 303 307 311 313 317 319 324 328 325 330 328 326 322 325
229 225 229 230 236 239 242 243 239 236 237 241 242 244 245 248 253 257 261 266 270 274 278 281 284 287 290 293 296 300 304 308 311 313 316 320 325 327 324 329 326 324 322 324
227 228 230 227 231 235 238 241 239 238 238 239 241 244 246 247 251 256 260 263 267 271 275 278 282 285 289 293 296 300 303 306 309 312 316 321 325 325 328 329 325 322 322 321
225 227 228 227 229 232 234 237 237 239 239 237 239 243 245 247 249 252 258 262 266 270 273 277 281 285 288 291 295 298 302 306 308 312 316 322 323 321 327 329 326 322 320 316
222 228 228 229 229 231 234 234 235 238 241 240 239 241 245 247 249 252 257 261 265 269 274 276 279 283 288 291 294 298 301 305 307 312 318 322 322 324 330 328 325 322 316 314
229 227 225 228 231 232 233 234 235 239 244 244 242 242 243 246 248 252 255 259 263 268 271 276 278 282 286 290 293 297 301 302 308 314 319 321 321 325 331 327 328 321 314 311
232 227 226 228 230 231 230 234 236 237 243 245 244 245 244 247 248 250 254 258 263 267 271 274 277 281 284 288 292 296 300 304 310 315 319 321 322 328 331 328 328 317 309 308
236 234 231 231 230 231 234 231 231 234 240 245 248 243 244 247 250 253 255 258 261 265 269 273 277 282 286 289 294 297 301 306 310 317 319 319 324 333 330 329 324 310 306 304
240 236 232 234 233 233 235 230 231 233 229 233 239 245 247 249 252 255 257 260 261 265 269 273 278 282 286 290 295 299 301 307 313 318 318 319 327 333 329 327 317 306 301 298
236 234 233 231 226 229 231 226 229 229 226 232 239 240 244 247 253 258 261 262 265 268 273 277 280 283 287 292 297 300 303 309 315 318 320 320 330 330 328 323 313 304 298 291
236 234 230 222 221 225 226 226 225 230 232 234 229 233 239 238 245 254 260 266 270 270 273 277 281 287 291 295 299 301 305 310 316 317 316 325 328 327 325 319 312 304 296 284
230 233 229 222 217 218 222 224 223 223 226 223 231 226 232 241 248 254 257 263 266 271 272 277 284 287 291 295 297 300 305 312 315 316 314 326 324 322 322 317 313 307 297 281
221 223 221 217 215 215 215 215 217 217 218 217 225 231 237 236 238 243 255 257 262 267 273 279 284 286 291 294 296 300 306 310 312 310 315 322 320 318 321 318 315 305 295 280
220 217 214 211 214 217 213 212 214 215 219 217 224 232 236 244 247 247 251 254 261 268 273 277 280 285 286 291 296 300 305 307 307 307 321 316 316 316 319 320 315 303 291 273
202 197 199 207 211 213 212 212 214 219 219 220 223 232 238 241 247 250 250 256 262 268 272 275 277 281 286 291 295 299 301 304 302 316 314 312 312 313 320 322 316 303 290 270
202 192 187 183 190 195 205 214 218 222 221 222 226 230 236 244 248 253 255 260 263 266 268 271 277 281 285 290 295 295 298 295 305 315 308 307 308 312 323 323 314 306 290 261
189 163 160 169 173 179 185 193 203 207 213 224 232 233 237 243 249 250 254 256 259 265 269 274 276 280 284 290 289 293 289 296 311 309 301 302 304 315 321 319 313 311 289 251
Height
10633 10635 10630 10643 10652 10651 10652 10669 10661 10678 10681 10680 10661 10653 10656 10670 10673 10676 10671 10663 10665 10664 10662 10661 10658 10654 10651 10645 10637 10631 10622 10613 10603 10592 10580 10566 10550 10534 10517 10498 10475 10452 10431 10413
10592 10608 10606 10606 10622 10640 10647 10648 10646 10647 10672 10655 10629 10641 10630 10653 10658 10661 10657 10649 10650 10646 10647 10644 10643 10639 10635 10629 10623 10616 10608 10598 10588 10577 10564 10551 10537 10519 10501 10481 10460 10439 10417 10402
10555 10577 10570 10561 10616 10618 10616 10636 10633 10627 10650 10618 10622 10617 10622 10630 10638 10634 10642 10644 10641 10636 10633 10631 10628 10625 10619 10614 10608 10601 10593 10584 10573 10563 10550 10537 10522 10504 10485 10465 10446 10426 10406 10391
10520 10533 10527 10574 10584 10588 10590 10604 10611 10617 10624 10600 10602 10596 10602 10618 10616 10613 10621 10621 10622 10622 10620 10616 10612 10609 10604 10600 10595 10587 10579 10570 10560 10548 10534 10521 10506 10490 10471 10452 10432 10412 10394 10378
10470 10489 10512 10521 10552 10559 10564 10585 10581 10589 10600 10583 10576 10571 10594 10600 10587 10602 10603 10604 10607 10606 10604 10601 10598 10594 10588 10583 10578 10571 10564 10555 10544 10532 10519 10506 10492 10476 10457 10439 10418 10397 10381 10367
10449 10443 10461 10506 10515 10521 10526 10555 10560 10558 10568 10561 10549 10566 10584 10563 10578 10584 10589 10590 10592 10591 10589 10587 10583 10580 10575 10570 10564 10557 10548 10540 10529 10517 10504 10492 10478 10460 10444 10425 10404 10383 10370 10357
10410 10411 10427 10450 10475 10483 10495 10544 10521 10526 10534 10535 10537 10550 10556 10558 10564 10568 10574 10576 10577 10577 10576 10575 10570 10566 10560 10554 10549 10541 10533 10524 10513 10502 10490 10478 10464 10447 10432 10414 10392 10371 10358 10346
10372 10384 10400 10425 10438 10452 10467 10486 10488 10496 10509 10520 10524 10528 10536 10543 10551 10556 10559 10561 10560 10560 10561 10559 10557 10550 10545 10539 10534 10526 10518 10509 10500 10488 10475 10464 10450 10433 10417 10400 10379 10359 10344 10334
10337 10359 10377 10396 10409 10423 10445 10454 10471 10485 10500 10503 10509 10512 10517 10525 10533 10538 10541 10540 10544 10545 10545 10544 10541 10536 10529 10525 10517 10509 10503 10494 10486 10473 10462 10449 10435 10420 10403 10387 10368 10349 10333 10323
10311 10347 10354 10365 10375 10384 10401 10429 10441 10459 10469 10479 10487 10493 10503 10508 10516 10520 10522 10524 10527 10529 10530 10527 10525 10521 10515 10509 10501 10495 10488 10478 10469 10458 10447 10435 10420 10405 10388 10372 10356 10337 10324 10313
10296 10323 10315 10326 10341 10360 10377 10406 10420 10436 10448 10455 10466 10474 10484 10492 10498 10503 10506 10507 10509 10512 10514 10511 10509 10505 10501 10493 10487 10481 10472 10463 10454 10443 10432 10420 10406 10390 10372 10358 10341 10327 10314 10305
10279 10275 10286 10313 10325 10343 10360 10373 10397 10407 10419 10430 10444 10456 10466 10476 10482 10487 10489 10492 10493 10497 10497 10496 10493 10490 10484 10479 10473 10466 10457 10449 10438 10428 10418 10404 10392 10377 10356 10342 10327 10312 10302 10297
10253 10253 10275 10294 10303 10316 10331 10348 10368 10383 10398 10412 10425 10437 10450 10462 10467 10473 10475 10477 10479 10482 10482 10481 10478 10474 10469 10464 10458 10451 10443 10435 10424 10413 10402 10390 10377 10361 10347 10325 10311 10299 10290 10287
10223 10232 10252 10263 10277 10288 10313 10327 10345 10361 10377 10395 10409 10420 10434 10445 10450 10455 10458 10461 10464 10467 10468 10466 10462 10459 10455 10449 10444 10436 10428 10420 10409 10398 10386 10375 10361 10346 10333 10318 10303 10285 10280 10278
10200 10206 10233 10240 10258 10274 10294 10312 10329 10343 10354 10375 10392 10402 10413 10425 10434 10439 10445 10444 10447 10451 10453 10449 10446 10443 10439 10434 10429 10422 10414 10405 10393 10383 10371 10361 10345 10331 10318 10304 10292 10279 10270 10269
10191 10195 10211 10227 10243 10263 10281 10296 10314 10329 10342 10359 10372 10383 10394 10406 10416 10423 10427 10430 10433 10436 10435 10432 10431 10428 10424 10420 10414 10407 10399 10388 10378 10368 10358 10343 10328 10316 10303 10291 10280 10271 10263 10260
10173 10184 10198 10212 10225 10242 10261 10277 10301 10316 10328 10344 10356 10368 10379 10389 10397 10405 10409 10414 10419 10420 10418 10415 10415 10413 10410 10406 10400 10392 10382 10371 10362 10354 10343 10329 10315 10303 10289 10278 10268 10261 10255 10252
10161 10173 10187 10201 10211 10223 10238 10264 10285 10299 10314 10325 10339 10353 10362 10370 10378 10387 10393 10398 10401 10402 10401 10399 10398 10398 10395 10391 10384 10376 10365 10356 10347 10340 10327 10312 10299 10288 10277 10267 10259 10251 10246 10244
10150 10160 10171 10182 10198 10210 10223 10252 10272 10287 10301 10315 10325 10336 10345 10354 10362 10368 10376 10380 10385 10386 10385 10383 10385 10382 10379 10375 10367 10359 10348 10340 10333 10324 10311 10296 10285 10275 10267 10258 10250 10242 10236 10235
10137 10147 10158 10172 10186 10195 10211 10233 10255 10271 10287 10300 10312 10321 10330 10338 10344 10350 10357 10364 10367 10369 10369 10369 10368 10366 10363 10358 10351 10342 10333 10326 10320 10309 10298 10283 10272 10263 10255 10249 10240 10232 10228 10227
10126 10136 10145 10161 10172 10183 10200 10214 10238 10256 10271 10287 10297 10307 10315 10322 10329 10334 10341 10345 10349 10353 10353 10353 10352 10350 10346 10341 10335 10326 10318 10314 10306 10295 10281 10269 10261 10252 10245 10240 10231 10223 10219 10219
10117 10125 10134 10146 10157 10171 10185 10202 10222 10239 10256 10270 10281 10291 10301 10309 10314 10321 10326 10330 10335 10335 10337 10337 10337 10334 10330 10326 10320 10312 10305 10299 10290 10279 10266 10259 10252 10244 10238 10231 10222 10215 10212 10211
10113 10121 10131 10142 10151 10161 10175 10192 10207 10225 10239 10252 10263 10274 10283 10290 10299 10305 10313 10318 10320 10321 10322 10323 10322 10318 10316 10311 10304 10299 10292 10284 10274 10266 10256 10249 10242 10236 10230 10223 10214 10208 10205 10204
10109 10117 10126 10135 10144 10155 10170 10181 10195 10208 10222 10236 10248 10258 10268 10275 10282 10292 10301 10304 10307 10309 10310 10309 10307 10304 10301 10295 10290 10285 10278 10269 10262 10252 10248 10240 10233 10228 10223 10215 10208 10203 10200 10199
10108 10114 10123 10132 10141 10152 10165 10177 10188 10199 10211 10224 10237 10245 10256 10261 10268 10279 10286 10290 10294 10295 10295 10294 10292 10289 10287 10281 10277 10271 10263 10256 10248 10243 10237 10231 10226 10221 10215 10208 10203 10198 10195 10194
10106 10112 10120 10132 10142 10151 10161 10171 10181 10192 10204 10217 10227 10236 10241 10248 10259 10268 10273 10277 10281 10280 10279 10278 10278 10275 10271 10269 10263 10255 10249 10241 10238 10235 10228 10224 10220 10214 10209 10203 10199 10195 10191 10190
10106 10114 10123 10132 10141 10151 10160 10168 10175 10185 10195 10206 10218 10226 10232 10241 10250 10256 10261 10262 10264 10264 10264 10265 10262 10260 10257 10253 10245 10241 10234 10230 10230 10226 10220 10217 10214 10208 10204 10200 10196 10192 10189 10187